Location: Brno
(49.2000°N, 16.6330°E)
Time: 21:59:35
(UTC+01:00)

RESURS DK-1 - Visible Passes

Search period start: 19 February 2017 00:00
Search period end: 01 March 2017 00:00
Orbit: 557 x 564 km, 69.9° (Epoch: 19 February)

Date Brightness Start Highest point End Pass type
(mag) Time Alt. Az. Time Alt. Az. Time Alt. Az.
19 Feb 2.7 18:09:42 10° SW 18:13:51 70° WNW 18:18:01 10° NNE visible
19 Feb 5.2 19:50:38 10° WNW 19:52:43 13° NW 19:54:47 10° N visible
20 Feb 3.2 18:08:29 10° SW 18:12:33 53° NW 18:16:39 10° NNE visible
20 Feb 5.3 19:50:16 10° NW 19:51:36 11° NW 19:52:55 10° NNW visible
21 Feb 3.7 18:07:20 10° SW 18:11:17 41° NW 18:15:16 10° NNE visible
22 Feb 4.1 18:06:15 10° WSW 18:10:02 33° NW 18:13:50 10° NNE visible
23 Feb 4.4 18:05:15 10° WSW 18:08:48 27° NW 18:12:23 10° N visible
24 Feb 4.7 18:04:20 10° W 18:07:36 22° NW 18:10:53 10° N visible
25 Feb 4.9 18:03:30 10° W 18:06:26 18° NW 18:09:21 10° N visible
26 Feb 5.0 18:02:47 10° WNW 18:05:16 15° NW 18:07:45 10° N visible
